Вернуться в каталог

STARLINK-11482

АктивенСвязьVLEO
NORAD 62520·PAYLOAD·🇺🇸 United States

Запущен Jan 8, 2025 с Cape Canaveral Space Force Station

Loading…

Ближайшие Пролёты (ближайшие 24 часа)

TLE

СвежийSource: CelesTrak SupGP

Эпоха: Sep 15, 2026, 03:27 UTC

1 62520C 25004K   26258.14423611 -.00077372  00000+0 -60099-3 0  2583
2 62520  43.0008   8.4265 0001877 264.7098 270.4570 15.70874581    18

Отслеживайте STARLINK-11482 в реальном времени с AllMySat

Download on the App Store